ITARNLAS2 Weather Reports


time (UTC)temp
F
wind
direction
speed
knots
gust
knots
rain 1hr
in
rain 24hr
in
rain mn
in
humidity
%
barometer
mb
20260902044607 52 0 0.0 0.0 0.00 0.00 0.00 89 1023.5
20260902043109 52 0 0.0 0.0 0.00 0.00 0.00 89 1023.5
20260902041604 52 0 0.0 0.0 0.00 0.00 0.00 89 1023.5
20260902040109 53 0 0.0 0.0 0.00 0.00 0.00 89 1023.7
20260902034606 53 0 0.0 0.0 0.00 0.00 0.00 89 1023.7
20260902033105 53 0 0.0 0.0 0.00 0.00 0.00 89 1023.6
20260902031608 53 0 0.0 0.0 0.00 0.00 0.00 88 1023.4
20260902024606 54 0 0.0 0.0 0.00 0.00 0.00 88 1023.5
20260902023111 54 0 0.0 0.0 0.00 0.00 0.00 87 1023.6
20260902021604 54 0 0.0 0.0 0.00 0.00 0.00 86 1023.6
20260902020104 54 0 0.0 0.0 0.00 0.00 0.00 87 1023.6
20260902014603 55 0 0.0 0.0 0.00 0.00 0.00 86 1023.3
20260902013107 55 0 0.0 0.0 0.00 0.00 0.00 85 1023.4
20260902011613 55 0 0.0 0.0 0.00 0.00 0.00 85 1023.4
20260902010117 56 0 0.0 0.0 0.00 0.00 0.00 83 1023.4
20260902004607 57 0 0.0 0.0 0.00 0.00 0.00 83 1023.6
20260902003107 57 0 0.0 0.0 0.00 0.00 0.00 82 1023.5
20260902001622 58 0 0.0 0.0 0.00 0.00 0.00 81 1023.5
20260902000107 58 0 0.0 0.0 0.00 0.00 0.00 81 1023.6
20260901234604 59 0 0.0 0.0 0.00 0.00 0.00 80 1023.6
20260901233105 60 0 0.0 0.0 0.00 0.00 0.00 80 1023.5
20260901231608 60 0 0.0 0.0 0.00 0.00 0.00 80 1023.5
20260901224600 60 0 0.0 0.0 0.00 0.00 0.00 79 1023.7
20260901223105 60 0 0.0 0.0 0.00 0.00 0.00 78 1023.7
20260901221624 60 0 0.0 0.0 0.00 0.00 0.00 78 1023.9
20260901220122 61 0 0.0 0.0 0.00 0.00 0.00 77 1023.8
20260901214606 61 0 0.0 0.0 0.00 0.00 0.00 77 1023.8
20260901213107 61 0 0.0 0.0 0.00 0.00 0.00 76 1023.7
20260901211609 61 0 0.0 0.0 0.00 0.00 0.00 74 1023.7
20260901204606 62 0 0.0 0.0 0.00 0.00 0.00 71 1023.7
20260901203107 63 0 0.0 0.0 0.00 0.00 0.00 69 1023.7
20260901201603 64 0 0.0 0.0 0.00 0.00 0.00 66 1023.4
20260901200107 65 0 0.0 0.0 0.00 0.00 0.00 64 1023.2
20260901194603 66 0 0.0 0.0 0.00 0.00 0.00 61 1023.1
20260901193108 67 0 0.0 0.0 0.00 0.00 0.00 59 1022.9
20260901191617 68 0 0.0 0.0 0.00 0.00 0.00 55 1022.6
20260901190126 69 0 0.0 0.0 0.00 0.00 0.00 52 1022.4
20260901184625 70 0 0.0 0.0 0.00 0.00 0.00 50 1022.2
20260901183107 71 0 0.0 0.0 0.00 0.00 0.00 50 1021.9
20260901181611 72 0 0.0 0.0 0.00 0.00 0.00 49 1022.0
20260901180110 72 0 0.0 0.0 0.00 0.00 0.00 49 1021.9
20260901174614 73 0 0.0 0.0 0.00 0.00 0.00 47 1021.9
20260901173111 74 0 0.0 0.0 0.00 0.00 0.00 47 1021.9
20260901171607 75 0 0.0 0.0 0.00 0.00 0.00 43 1021.8
20260901170109 76 266 0.0 0.9 0.00 0.00 0.00 42 1021.9
20260901164606 77 0 0.9 5.2 0.00 0.00 0.00 41 1021.7
20260901163109 78 217 0.9 7.0 0.00 0.00 0.00 42 1021.7
20260901161613 78 29 0.9 2.6 0.00 0.00 0.00 37 1021.6
20260901160113 79 0 1.7 4.3 0.00 0.00 0.00 40 1021.5
20260901154605 80 0 0.9 3.5 0.00 0.00 0.00 37 1021.6
20260901153113 82 240 0.9 5.2 0.00 0.00 0.00 34 1021.5
20260901151607 83 241 0.9 4.3 0.00 0.00 0.00 34 1021.5
20260901150106 83 98 0.9 5.2 0.00 0.00 0.00 36 1021.4
20260901144611 83 209 2.6 7.0 0.00 0.00 0.00 33 1021.4
20260901143102 83 80 0.0 2.6 0.00 0.00 0.00 36 1021.5
20260901141607 82 58 1.7 5.2 0.00 0.00 0.00 34 1021.7
20260901140113 82 156 0.9 4.3 0.00 0.00 0.00 33 1021.7
20260901134612 82 236 0.9 3.5 0.00 0.00 0.00 33 1022.0
20260901133105 81 136 1.7 4.3 0.00 0.00 0.00 32 1022.0
20260901131606 81 0 0.9 7.0 0.00 0.00 0.00 35 1022.1
20260901130106 81 0 0.0 5.2 0.00 0.00 0.00 36 1022.3
20260901124609 81 212 1.7 3.5 0.00 0.00 0.00 36 1022.5
20260901123106 79 124 2.6 6.1 0.00 0.00 0.00 38 1022.7
20260901121604 78 94 1.7 5.2 0.00 0.00 0.00 38 1022.8
20260901120106 78 131 1.7 5.2 0.00 0.00 0.00 41 1022.8
20260901114647 77 95 1.7 5.2 0.00 0.00 0.00 39 1023.1
20260901113107 75 125 1.7 7.0 0.00 0.00 0.00 44 1023.1
20260901111607 75 126 2.6 5.2 0.00 0.00 0.00 43 1023.1
20260901110105 75 106 1.7 6.1 0.00 0.00 0.00 45 1023.3
20260901104604 75 111 0.9 4.3 0.00 0.00 0.00 47 1023.4
20260901103106 73 202 2.6 5.2 0.00 0.00 0.00 48 1023.5
20260901101604 73 153 2.6 6.1 0.00 0.00 0.00 48 1023.6
20260901100106 73 123 2.6 6.1 0.00 0.00 0.00 49 1023.6
20260901094603 73 250 0.9 4.3 0.00 0.00 0.00 50 1023.7
20260901093104 72 182 1.7 6.1 0.00 0.00 0.00 52 1023.8
20260901091619 71 121 2.6 7.0 0.00 0.00 0.00 53 1023.7
20260901090105 70 68 2.6 7.0 0.00 0.00 0.00 54 1023.7
20260901084605 70 116 2.6 6.1 0.00 0.00 0.00 55 1023.7
20260901083106 70 83 2.6 6.1 0.00 0.00 0.00 54 1023.6
20260901081603 69 184 2.6 8.7 0.00 0.00 0.00 61 1023.5
20260901080110 67 119 1.7 5.2 0.00 0.00 0.00 65 1023.5
20260901074606 65 105 0.9 6.1 0.00 0.00 0.00 73 1023.6
20260901073105 59 0 0.0 3.5 0.00 0.00 0.00 87 1023.4
20260901071606 55 0 0.0 0.0 0.00 0.00 0.00 90 1023.5
20260901070117 53 0 0.0 0.0 0.00 0.00 0.00 92 1023.6
20260901064604 52 0 0.0 0.0 0.00 0.00 0.00 92 1023.5
20260901063109 51 0 0.0 0.0 0.00 0.00 0.00 92 1023.5
20260901061608 50 0 0.0 0.0 0.00 0.00 0.00 92 1023.6
20260901060106 49 0 0.0 0.0 0.00 0.00 0.00 92 1023.5
20260901054605 48 0 0.0 0.0 0.00 0.00 0.00 91 1023.3
20260901053119 48 0 0.0 0.0 0.00 0.00 0.00 91 1023.2
20260901051606 48 0 0.0 0.0 0.00 0.00 0.00 91 1023.1
20260901050108 49 0 0.0 0.0 0.00 0.00 0.00 91 1023.2